FENGYUN 1C DEB

Satellite information

Favourite Embed

Satellite Type and Status

DEBRISIN ORBIT

Key statistics

Satellite FENGYUN 1C DEB at a glance.

Uptime

9715

Days in orbit

Revolutions

≈ 13.3

Per day

Orbit

SSO

Sun Synchronous Orbit

Inclination

100.1

Latest

Satellite identification and parameters

Extended collection of information and parameters for FENGYUN 1C DEB.

Object identification

Identified? True

Debris? True

Object name: FENGYUN 1C DEB

International designator: 1999-025DPJ

Object number (NORAD): 35202

Object ID (CCSDS): 35202

Country: PEOPLES REPUBLIC OF CHINA (PRC)

Current information (Y/N): Y

RCS size: SMALL

Orbital parameters

Period: 107.886 minutes

Inclination: 100.0904 deg

SMA: 7507.071 km

Apoapsis: 1409.686 km

Periapsis: 848.185 km

RAAN: 29.443 deg

Eccentricy: 0.03739815

Argument of periapsis: 13.8242 deg

Mean anomaly: 347.2795 deg

Mean motion: 13.34741042 rev/day

Mean motion (dot): 0.00000519 rev/day2

B* drag term: 0.00075501858 1/REarth

Two-line elements (TLE)

Creation date: Dec. 10, 2025, 7:58 p.m.

Reference frame: TEME

Reference center: EARTH

Epoch: Dec. 10, 2025, 9:21 a.m. UTC

TLE line 0: 0 FENGYUN 1C DEB

TLE line 1: 1 35202U 99025DPJ 25344.38986410 .00000519 00000-0 75502-3 0 9991

TLE line 2: 2 35202 100.0904 29.4430 0373982 13.8242 347.2795 13.34741042569457

Live tracking on map

Real-time ground track for satellite FENGYUN 1C DEB.

In-orbit conjunctions

A list of the most updated potential collisions computed for object FENGYUN 1C DEB.

Target Orbit TCA Probability of collision Miss distance Type
CZ-6A DEB LEO 2025-03-23 17:28:44 0.0004645964 52.0 (m) DEBRIS
COSMOS 1610 LEO 2024-09-13 05:09:47 0.0002618329 803.0 (m) PAYLOAD

Associated space launch

Chinese polar orbiting meteorological satellite

FENGYUN 1C DEB was lifted into orbit during the mission ‘Long March 4B | Feng Yun 1C’, on board a Long March 4B space rocket.

The launch took place on May 10, 1999, 1:33 a.m. from Launch Complex 7.

For more information about the launch, click the button.

Launch to space Long March 4B | Feng Yun 1C
Long March 4B | Feng Yun 1C

Agency: N/A

Status: Launch Successful

Launch date: May 10, 1999, 1:33 a.m. UTC

Rocket: Long March 4B

Launch pad: Launch Complex 7

Location: Taiyuan Satellite Launch Center, People's Republic of China

...

Latest news about this satellite

There are no fresh news available about this satellite. Check back as we update our databases every day.


Newsletter sign-up

Weekly statistics, charts and insights to help you stay on top of the space industry.